Theta_e
323 319 321 318 307 308 303 305 306 304 306 312 312 311 310 311 310 307 319 322 325 328 335 339 340 341 341 339 335 333 333 332 332 332 331 330 329 328 332 332 329 329 328 328 327 326 325 326 327
317 316 319 314 304 300 303 309 305 306 307 311 311 311 311 310 314 316 316 322 326 332 336 339 338 340 340 338 335 334 334 332 332 332 331 330 329 328 331 327 327 328 330 327 327 325 325 326 326
315 315 310 307 302 299 300 302 304 308 310 310 309 311 312 312 313 317 321 324 329 334 338 336 337 339 340 338 336 336 332 330 331 331 331 330 329 327 328 326 330 329 328 328 326 324 324 325 324
314 314 310 301 298 301 302 304 307 306 309 310 310 309 311 315 315 319 323 326 330 334 337 335 337 338 339 338 337 334 331 332 331 331 330 329 328 326 327 326 326 327 327 325 326 323 322 324 323
314 310 301 298 299 301 304 305 306 304 307 309 309 308 309 313 316 321 323 327 330 333 336 335 336 337 338 337 336 334 333 331 331 330 330 327 326 326 325 324 325 327 325 323 324 322 321 323 322
307 307 296 295 298 302 303 305 304 305 306 308 307 308 311 315 316 321 325 327 332 333 335 334 332 333 335 336 334 333 334 332 331 329 328 327 327 325 325 324 324 325 324 322 321 321 320 322 321
303 300 295 295 295 297 300 304 303 303 304 307 311 308 311 312 318 323 325 328 331 333 334 334 333 332 330 332 331 332 333 331 330 329 328 327 325 325 324 323 323 322 323 321 320 319 319 319 319
306 302 295 296 294 295 301 304 307 306 305 310 312 308 310 314 320 323 325 326 328 331 334 333 333 332 331 330 328 329 329 329 329 327 325 324 323 324 323 322 322 321 320 320 318 318 317 317 315
306 297 293 295 295 297 302 302 309 309 308 308 310 309 310 316 321 322 322 323 324 327 330 333 332 332 331 330 327 325 325 326 325 322 320 319 320 319 318 320 321 319 317 318 317 315 313 311 308
302 296 296 300 300 298 302 306 307 307 306 307 308 309 312 317 319 318 318 318 321 324 328 330 332 330 330 327 327 326 325 325 323 322 320 318 319 319 319 317 318 316 315 314 313 308 304 302 307
300 296 300 300 302 302 301 303 305 304 303 307 309 310 311 315 317 317 318 319 319 323 326 328 330 328 328 326 326 325 324 324 322 320 320 318 318 319 319 318 316 314 310 310 308 303 301 299 302
295 299 300 301 302 302 301 304 303 305 305 309 309 311 312 314 316 317 318 319 319 321 324 328 330 329 329 324 323 323 323 323 321 319 319 318 316 318 317 316 315 312 309 307 306 302 300 299 299
295 296 299 301 301 302 303 300 301 302 306 309 309 309 311 313 316 318 319 320 320 320 322 325 327 326 324 322 323 324 323 321 321 319 318 317 317 316 316 315 314 312 308 306 303 301 299 299 298
295 295 296 297 298 300 299 300 301 302 307 306 306 307 310 312 314 317 318 318 318 320 322 325 325 328 325 323 323 323 322 322 320 319 318 317 316 316 314 313 311 310 307 304 301 300 299 299 299
294 290 293 294 296 296 299 294 295 301 303 304 306 308 309 311 313 315 317 317 319 320 322 321 324 326 322 322 321 321 321 320 319 318 318 316 316 315 313 311 309 307 304 301 299 299 299 299 299
291 292 287 292 294 295 296 289 297 301 300 300 302 305 307 310 312 314 316 317 319 320 320 322 322 322 321 320 317 318 320 319 319 318 317 316 314 314 313 311 310 307 302 300 299 299 299 299 299
288 284 287 289 294 293 293 290 297 301 300 300 302 303 305 308 311 313 315 316 318 319 320 320 322 320 320 317 316 315 318 319 318 317 316 315 314 313 312 311 311 307 304 301 301 300 299 299 299
283 284 286 286 291 292 292 291 296 299 300 301 303 304 304 305 308 312 314 315 317 318 319 320 320 321 320 319 316 313 313 316 317 316 315 314 313 312 312 311 310 307 305 303 301 300 299 298 298
286 284 284 288 292 291 291 291 294 297 298 299 300 301 303 305 309 311 313 314 315 316 317 318 319 319 317 316 314 312 311 310 310 312 313 314 313 311 311 310 309 307 305 304 302 301 299 299 299
286 284 284 287 289 289 288 288 292 295 296 298 299 300 302 304 307 309 311 313 313 314 315 316 318 317 316 315 315 316 314 312 312 312 310 311 311 311 310 310 308 306 305 304 301 299 299 299 298
285 284 284 284 287 289 288 286 288 293 296 298 300 301 302 303 305 307 309 311 313 312 314 314 316 317 316 317 315 317 316 314 310 309 308 308 311 310 309 309 308 306 305 303 302 300 299 298 298
281 287 285 284 282 279 287 279 287 291 291 294 297 300 302 303 305 306 308 310 311 313 314 314 315 317 316 316 314 313 312 310 311 311 309 310 311 311 309 309 307 307 304 303 302 300 300 298 297
284 287 285 285 282 282 283 280 285 290 288 291 295 298 301 303 305 306 308 310 312 314 314 314 314 315 315 314 315 313 312 314 315 314 311 312 310 310 309 308 307 306 304 303 302 299 299 298 298
288 286 285 284 283 276 281 281 282 286 288 290 294 296 298 300 303 306 308 310 311 313 313 314 313 314 316 314 314 313 313 313 312 311 311 310 309 310 308 307 307 305 303 302 301 300 299 298 298
286 283 277 275 275 274 283 281 283 289 292 292 293 295 297 300 302 304 305 307 309 310 312 312 312 311 314 313 313 313 312 313 312 310 310 309 309 308 306 307 306 305 304 302 302 300 300 299 298
283 283 277 271 273 276 282 277 283 291 294 295 295 296 298 299 300 301 305 307 308 310 311 311 311 310 312 313 312 313 312 312 312 311 311 310 310 309 308 306 305 305 304 303 302 301 301 300 299
283 280 286 279 277 278 281 284 289 292 292 294 295 296 297 299 299 300 301 305 307 309 310 310 310 311 311 311 311 312 311 311 311 312 311 310 310 309 308 306 304 304 304 303 302 302 300 300 300
285 287 279 281 272 271 277 281 282 288 290 293 295 296 297 297 297 297 299 301 304 308 309 310 310 310 310 310 311 310 310 311 310 311 309 309 309 308 306 305 305 304 304 303 302 302 302 300 301
282 281 282 283 280 274 273 278 289 289 291 293 295 293 293 294 295 295 297 299 301 304 307 307 308 309 309 308 309 309 309 309 309 308 308 308 307 306 304 303 303 303 302 303 302 302 302 300 301
286 283 283 278 276 280 279 279 289 291 292 292 291 292 292 292 294 295 297 299 299 301 303 304 305 306 307 306 306 307 307 307 306 305 305 306 304 303 302 301 301 301 301 301 301 301 300 299 298
Wind_Speed
13 11 3 4 5 4 5 4 2 3 1 3 0 3 3 5 3 4 4 5 14 16 14 15 18 17 18 19 18 16 16 17 15 15 15 15 13 12 13 17 15 15 14 14 15 14 13 16 16
8 7 2 1 6 8 7 5 7 0 3 0 2 3 4 0 3 6 11 7 17 16 14 16 16 17 20 19 17 17 17 16 15 16 15 15 14 12 13 14 14 14 14 16 14 14 14 15 15
4 5 4 3 4 10 6 2 7 1 2 3 2 3 1 1 3 10 5 15 18 15 14 13 17 18 18 18 17 17 17 15 15 16 16 14 15 13 13 15 15 15 14 15 14 13 14 15 15
4 2 2 7 8 6 9 2 1 5 2 2 2 5 2 1 3 7 10 17 18 15 16 16 18 19 18 18 18 18 14 16 15 15 15 15 14 14 14 14 14 14 15 13 12 14 11 14 14
2 2 6 7 11 6 8 6 4 4 3 3 4 2 2 4 3 7 15 16 18 16 16 17 17 19 18 17 18 17 15 16 15 15 15 14 14 13 12 13 14 14 15 13 12 12 13 13 13
2 2 7 10 13 9 6 7 7 8 6 2 5 4 1 5 8 10 15 16 16 15 16 16 14 15 17 18 17 17 16 15 16 14 15 14 14 12 12 12 13 14 14 13 12 10 12 12 12
5 4 8 10 13 13 9 3 8 10 9 8 1 4 3 7 8 11 15 15 15 15 16 14 15 15 11 13 15 16 17 13 14 14 15 12 13 11 11 11 12 12 13 13 12 10 10 10 9
3 4 7 6 8 16 5 4 3 7 7 2 3 6 3 7 12 13 13 14 15 14 15 16 15 15 15 14 10 14 16 14 13 13 12 11 10 10 9 8 10 12 11 11 12 10 8 9 8
2 7 11 13 9 5 3 6 2 1 4 4 5 3 4 13 15 16 14 14 14 13 15 16 15 16 14 12 12 13 13 14 12 13 13 9 7 9 9 8 9 11 11 10 10 10 9 8 7
10 9 14 6 10 7 4 7 3 5 5 6 6 5 6 15 16 18 19 17 18 18 15 15 16 15 13 9 14 14 13 11 8 8 10 6 9 8 5 7 9 7 8 9 11 8 6 2 2
7 15 16 10 10 8 8 10 5 7 9 9 7 6 11 15 17 17 18 18 18 17 10 15 18 13 14 12 8 6 8 8 7 8 9 7 7 8 7 6 5 5 4 5 5 4 2 3 1
10 12 18 11 10 6 8 4 8 11 16 7 7 3 13 16 18 21 20 19 19 19 16 12 17 16 17 10 9 10 9 8 8 8 10 8 6 7 7 5 5 5 4 4 3 2 2 2 2
12 14 12 13 11 12 11 15 21 23 20 15 9 7 12 16 19 17 16 16 17 19 19 14 15 15 13 12 10 10 10 9 10 11 11 9 9 7 6 6 5 4 4 3 3 3 3 2 1
2 9 16 12 10 8 12 19 13 17 19 18 16 18 14 16 19 16 18 19 20 19 19 18 15 18 17 14 15 11 10 11 10 10 11 12 8 7 7 7 6 5 4 3 3 2 2 2 2
6 11 15 13 9 8 11 20 26 29 22 18 17 15 13 16 15 22 21 20 20 18 18 16 17 17 14 16 14 10 10 10 10 10 13 12 10 9 8 7 7 5 4 4 3 3 3 3 3
6 5 9 4 15 12 13 21 15 19 18 25 26 21 18 16 20 18 17 19 20 19 21 17 15 17 16 14 10 8 11 10 10 10 10 12 12 11 9 7 7 7 5 5 4 4 3 4 3
7 15 16 12 10 6 18 16 12 15 14 19 21 21 21 18 17 17 19 19 20 21 21 19 17 17 17 12 10 8 11 11 10 10 10 13 12 12 9 7 7 8 6 6 5 4 4 3 4
17 20 15 14 2 9 15 16 15 16 9 13 14 16 17 19 21 19 20 19 19 20 20 21 15 18 15 11 10 7 7 7 10 10 10 13 11 12 10 7 8 8 6 6 6 5 4 3 3
14 14 17 9 6 7 16 19 17 20 20 18 20 21 20 18 19 14 17 19 19 19 21 23 21 19 12 10 11 10 11 7 7 9 12 13 12 13 12 8 9 8 8 8 7 5 5 4 3
20 19 19 15 13 13 20 27 21 22 25 19 22 21 21 20 17 13 16 18 21 22 20 20 22 20 17 12 11 9 11 10 10 10 11 13 13 13 12 11 9 10 7 8 8 7 4 3 3
21 24 18 18 12 16 14 30 27 23 26 23 21 23 22 21 21 18 17 20 21 22 22 22 23 23 19 17 11 9 9 6 9 9 8 9 14 14 14 13 10 10 8 7 8 8 8 5 3
21 14 19 15 10 12 5 19 18 14 18 22 19 20 21 21 22 20 18 20 21 23 20 21 21 23 19 20 16 19 13 12 11 11 11 12 16 15 14 13 12 11 8 9 8 8 7 6 6
13 6 13 17 17 15 21 13 7 10 16 17 18 19 20 21 22 22 20 21 21 21 21 20 21 20 20 20 20 16 16 13 10 10 15 15 14 16 15 14 13 12 9 10 10 9 9 7 5
4 10 4 4 8 10 24 17 21 18 19 18 19 21 21 21 21 20 18 18 18 17 19 19 22 23 22 22 23 22 22 17 13 13 12 10 10 11 13 14 13 12 10 10 9 10 10 9 8
16 11 6 8 9 14 6 14 29 12 14 16 18 17 18 17 16 15 16 16 18 20 20 20 22 22 24 25 23 23 21 19 18 16 13 14 11 11 13 15 13 11 12 11 10 10 10 10 9
23 22 10 11 13 15 5 12 19 6 17 23 21 19 16 14 11 14 15 15 18 19 21 21 22 22 23 23 25 21 20 13 13 16 13 11 11 12 16 14 12 14 13 12 11 8 8 9 9
17 22 24 18 3 6 10 15 20 20 15 14 17 17 16 12 10 13 11 12 15 18 19 21 22 21 21 22 19 20 19 19 17 17 14 11 12 10 14 15 14 14 14 13 12 9 10 9 9
23 14 14 13 14 17 14 20 15 8 12 17 18 17 14 13 9 9 10 10 11 14 16 18 18 20 20 19 18 17 19 19 16 15 16 15 13 13 13 13 13 13 12 13 13 10 10 10 8
18 16 14 12 16 14 16 17 20 20 17 16 10 6 8 9 7 6 5 4 6 9 12 13 16 17 17 17 17 17 16 17 15 14 15 14 13 14 14 12 12 12 13 13 13 12 11 11 10
24 27 28 12 21 18 17 18 4 8 9 5 5 2 5 4 4 2 4 4 5 7 9 12 12 14 15 16 16 16 15 15 15 14 14 14 13 12 12 11 11 11 13 12 13 13 10 12 11
Wind_Direction
315 314 280 233 254 256 236 215 304 234 205 31 335 256 319 343 319 20 136 132 146 151 155 162 153 143 141 135 132 134 132 128 128 125 121 113 108 107 107 104 103 98 94 89 88 91 91 91 79
324 310 243 162 245 244 234 237 227 30 41 11 213 226 249 30 101 110 143 164 157 150 157 151 148 142 140 136 136 136 132 128 134 127 120 122 122 120 112 104 108 110 105 101 99 101 92 94 86
321 351 276 239 233 240 260 290 281 166 355 198 236 261 290 66 129 155 109 157 154 155 151 148 147 142 145 142 138 137 137 139 136 131 128 124 119 121 115 114 113 103 96 94 104 108 103 89 87
343 173 156 252 229 242 250 224 304 303 91 208 232 239 198 48 132 161 149 158 157 154 153 155 148 146 149 144 140 139 135 143 133 132 129 128 132 130 121 123 105 105 100 98 94 103 108 97 90
26 202 245 259 258 257 244 281 276 272 296 202 200 206 235 158 125 141 153 161 157 160 155 157 154 150 150 146 147 140 144 146 138 138 136 128 124 121 133 123 118 113 102 109 98 97 112 101 90
190 277 232 257 256 262 258 251 267 255 254 188 215 240 152 122 161 154 158 165 161 158 158 159 155 152 150 152 148 143 143 147 142 140 127 129 127 141 126 125 119 116 122 112 109 106 109 91 91
257 229 257 258 271 269 264 218 226 254 257 234 210 228 103 174 160 158 163 163 166 162 163 168 163 156 152 151 151 144 138 144 135 138 140 139 143 132 128 128 126 124 122 116 112 106 107 103 98
250 247 232 238 248 268 255 227 242 234 253 56 223 235 174 146 149 157 161 165 172 170 173 172 169 166 166 161 144 143 134 135 137 135 116 116 114 106 98 113 129 128 128 119 119 115 109 104 90
204 232 249 236 222 250 226 240 177 346 237 212 195 290 79 140 150 157 163 171 178 181 186 178 177 172 167 167 154 134 127 137 128 113 107 115 136 149 161 92 128 132 135 133 128 104 103 100 87
217 224 242 236 224 240 253 264 272 234 200 221 212 169 139 156 168 172 177 182 187 184 187 185 180 166 166 162 163 151 150 156 141 154 147 138 159 153 145 97 88 103 132 136 120 109 111 171 128
207 233 236 235 228 234 252 258 258 259 250 244 243 180 174 177 183 191 192 191 191 185 186 189 177 165 169 164 165 161 159 166 150 153 161 144 168 158 161 148 151 149 124 132 137 143 130 108 134
231 246 251 250 233 219 225 246 257 257 262 278 269 264 183 193 196 194 198 193 191 191 187 187 187 176 176 164 165 170 163 171 174 161 166 167 183 178 167 170 164 173 181 158 164 138 128 141 131
234 246 251 253 243 237 256 252 262 268 263 265 255 211 209 207 209 204 200 198 193 198 190 186 186 177 165 165 178 182 168 176 182 175 187 185 190 186 173 169 174 183 183 188 177 165 167 170 225
328 266 264 267 245 231 239 251 250 255 258 259 249 246 233 219 211 201 199 199 200 199 191 185 193 187 172 179 183 185 171 177 176 182 184 194 196 190 184 173 177 180 201 186 197 207 194 194 225
278 269 262 240 228 231 236 250 245 249 252 251 243 246 240 224 212 212 203 201 199 201 192 188 190 188 180 182 181 191 173 176 180 184 185 189 200 195 188 183 177 175 179 193 199 206 221 228 221
252 244 260 223 222 224 202 258 241 248 252 245 249 245 239 224 220 215 215 205 198 197 200 189 190 189 188 183 176 191 174 180 182 182 186 190 197 197 193 190 185 169 171 191 207 222 235 251 255
220 258 239 260 215 220 213 261 251 262 251 245 246 242 237 233 218 218 213 212 201 197 197 193 187 188 187 180 178 183 182 182 185 184 188 189 194 197 197 199 187 174 176 190 200 207 240 255 266
239 237 250 258 200 228 240 249 261 254 243 254 259 256 246 239 231 219 206 204 205 199 197 195 192 190 186 178 180 178 186 197 179 189 191 188 193 195 202 205 191 185 186 188 193 212 204 260 286
286 268 264 270 270 268 260 263 257 262 261 253 257 255 253 252 244 225 208 199 199 201 195 197 195 190 181 185 181 185 195 186 190 186 193 192 194 194 199 202 197 193 199 199 196 194 211 216 237
248 260 260 270 265 269 271 268 261 259 263 254 254 254 253 251 245 225 208 198 198 199 197 193 197 189 190 192 188 190 191 202 200 194 189 191 195 195 200 199 199 200 199 198 196 197 184 213 210
239 243 250 251 278 265 280 275 261 250 250 255 245 251 249 247 247 233 209 200 200 200 200 193 193 194 190 192 185 195 181 195 196 200 191 190 198 200 198 203 198 197 204 200 198 202 205 207 185
253 248 246 250 241 261 198 281 266 254 252 244 248 241 242 239 241 239 211 208 200 204 202 203 193 191 191 187 188 194 197 196 200 194 192 200 202 199 201 203 201 199 195 204 198 198 207 211 209
237 223 221 232 235 264 250 265 269 231 253 252 241 239 236 234 236 235 220 214 207 200 195 201 197 193 189 188 195 197 204 209 192 195 196 201 194 199 201 201 198 199 200 203 197 192 203 206 221
215 222 180 203 221 238 242 227 268 245 253 251 243 242 241 241 237 237 232 218 217 204 194 192 195 195 191 193 196 200 204 201 199 195 194 192 193 197 196 197 203 201 199 200 198 200 203 204 210
210 200 209 213 207 245 290 215 260 271 261 253 250 251 247 242 237 234 227 216 212 202 196 190 194 195 194 196 199 201 203 202 200 192 193 192 192 194 195 196 198 201 202 201 197 198 205 204 211
200 205 204 221 221 245 179 220 243 284 254 241 242 255 256 248 238 238 229 219 215 201 193 190 194 198 194 196 200 201 199 200 200 198 196 195 197 195 195 196 194 201 200 202 199 201 208 202 212
199 212 225 257 315 258 207 246 268 265 252 249 245 238 248 251 241 241 231 214 217 207 199 192 193 201 198 198 195 197 198 200 198 200 199 194 193 188 189 189 191 197 201 201 199 202 203 204 211
223 198 205 224 229 235 237 239 251 254 255 254 256 254 264 266 252 242 238 219 215 213 202 199 199 200 200 198 196 197 197 200 197 194 196 196 190 179 180 183 188 192 196 198 201 202 202 200 206
198 223 221 227 229 233 243 246 246 263 260 262 259 274 287 285 283 273 230 210 226 218 210 199 198 199 199 197 195 195 196 197 195 195 190 192 184 184 183 181 183 185 190 196 198 202 196 201 204
210 201 205 203 217 228 244 242 205 250 266 229 268 258 296 299 290 199 204 211 218 212 204 203 196 197 197 195 194 196 193 192 189 192 187 179 182 181 178 175 179 181 189 189 196 196 190 197 195